#timestamp,LO_Frequency,Hit,StdDev 
1518667215.2,286047004.4,N
1518667235.1,286047004.1,N
1518667236.0,286047004.1,N
1518667255.8,286047004.4,N
1518667275.7,286047002.5,N
1518667295.5,286047002.0,N
1518667315.3,286047002.6,N
1518667335.2,286047002.8,N
1518667355.0,286047002.6,N
1518667355.9,286047002.6,N
1518667375.7,286047000.0,N
1518667395.6,286047002.6,N
1518667415.4,286047001.9,N
1518667435.3,286047003.9,N
1518667455.1,286047002.2,N
1518667456.0,286047002.2,N
1518667475.8,286047002.3,N
1518667495.7,286047000.1,N
1518667515.5,286047000.4,N
1518667535.3,286046999.7,N
1518667555.2,286047001.6,N
1518667575.0,286047002.6,N
1518667575.9,286047002.6,N
1518667595.8,286047004.4,N
1518667615.6,286047004.3,N
1518667635.4,286047004.3,N
1518667655.3,286047004.2,N
1518667675.1,286047003.9,N
1518667695.9,286047001.3,N
1518667715.7,286047001.6,N
1518667735.5,286047001.4,N
1518667755.4,286047003.6,N
1518667775.2,286047001.3,N
1518667795.0,286047003.7,N
1518667795.9,286047003.7,N
1518667815.8,286047003.7,N
1518667835.6,286047003.7,N
1518667855.5,286047004.3,Y
1518667875.3,286047000.0,P
1518667895.1,286047000.2,N
1518667915.9,286047000.3,N
1518667935.7,286046998.2,N
1518667955.6,286047000.5,N
1518667975.4,286047001.0,N
1518667995.2,286047001.2,N
1518668015.1,286046998.1,N
1518668016.0,286046998.1,N
1518668035.8,286046998.9,N
1518668055.7,286046999.3,N
1518668075.5,286046999.0,N
1518668095.3,286046999.6,N
1518668115.2,286046998.8,N
1518668135.0,286046999.6,N
1518668135.9,286046999.6,N
1518668155.8,286046999.5,N
1518668175.6,286047000.5,N
1518668195.4,286047001.1,N
1518668215.3,286046998.1,N
1518668235.1,286047000.8,N
1518668255.9,286047000.7,N
1518668275.7,286046998.1,N
1518668295.5,286046998.4,N
1518668315.4,286046998.8,N
1518668335.2,286046999.0,N
1518668355.0,286046999.4,N
1518668355.9,286046999.4,N
1518668375.8,286046998.7,N
1518668395.6,286046999.3,N
1518668415.5,286046999.3,N
1518668435.3,286046998.8,N
1518668455.1,286046998.3,N
1518668475.9,286046999.3,N
1518668495.7,286046997.1,Y
1518668515.6,286046999.3,P
1518668535.4,286046999.6,P
1518668555.2,286046999.5,P
1518668575.1,286046998.2,Y
1518668576.0,286046998.2,P
1518668595.8,286046998.5,N
1518668615.6,286046998.2,P
1518668635.5,286047001.0,N
1518668655.3,286046998.3,N
1518668675.2,286046999.3,N
1518668695.9,286046998.9,N
1518668715.7,286046999.5,N
1518668735.6,286046999.3,N
1518668755.4,286047000.7,N
1518668775.2,286046999.9,N
1518668795.1,286047002.1,N
1518668796.0,286047002.1,N
1518668815.8,286047000.1,N
1518668835.7,286046999.8,N
1518668855.5,286047002.1,N
1518668875.3,286047001.6,N
1518668895.2,286047002.3,N
1518668915.0,286047002.8,N
1518668915.9,286047002.8,N
1518668935.8,286046999.8,N
1518668955.6,286046999.8,N
1518668975.4,286047000.3,N
1518668995.3,286047002.5,N
1518669015.1,286047002.7,N
1518669035.9,286047002.2,N
1518669055.7,286047002.5,N
1518669075.5,286046999.7,N
1518669095.4,286047002.1,N
1518669115.2,286047002.5,N
1518669135.0,286047000.2,N
1518669135.9,286047000.2,N
1518669155.8,286047000.1,N
1518669175.6,286047002.1,N
1518669195.5,286047000.4,N
1518669215.3,286046998.2,N
1518669235.1,286046998.9,N
1518669255.9,286046996.5,N
1518669275.7,286046998.3,N
1518669295.5,286046998.8,N
1518669315.4,286046998.6,N
1518669335.2,286046998.8,N
1518669355.1,286046998.2,N
1518669356.0,286046998.2,N
1518669375.8,286047001.0,N
1518669395.6,286047001.1,N
1518669415.5,286046998.7,N
1518669435.3,286046998.2,N
1518669455.2,286047000.5,N
1518669475.9,286047002.3,N
1518669495.7,286047002.5,N
1518669515.6,286047002.3,N
1518669535.4,286047002.8,N
1518669555.2,286047001.2,N
1518669575.1,286047001.2,N
1518669576.0,286047001.2,N
1518669595.8,286046998.3,N
1518669615.7,286046998.6,N
1518669635.5,286047000.8,N
1518669655.3,286047001.0,N
1518669675.2,286047002.0,N
1518669695.0,286047002.4,N
1518669695.9,286047002.4,N
1518669715.8,286047002.5,N
1518669735.6,286047000.3,N
1518669755.4,286047002.3,N
1518669775.3,286047001.1,N
1518669795.1,286046999.9,N
1518669815.9,286047001.6,N
1518669835.7,286047001.9,N
1518669855.5,286047001.7,N
1518669875.4,286047003.1,N
1518669895.2,286047001.7,N
1518669915.0,286047002.2,N
1518669916.0,286047002.2,N
1518669935.8,286046999.7,N
1518669955.6,286046999.8,N
1518669975.5,286047000.1,N
1518669995.3,286047002.1,N
1518670015.2,286047002.7,N
1518670035.9,286047000.3,N
1518670055.7,286047001.9,N
1518670075.6,286046999.8,N
1518670095.4,286046998.4,N
1518670115.3,286046998.3,N
1518670135.1,286046996.6,N
1518670136.0,286046996.6,N
1518670155.8,286047001.2,N
1518670175.7,286046998.8,N
1518670195.5,286046996.9,N
1518670215.3,286046999.1,N
1518670235.2,286046998.7,N
1518670255.0,286046999.5,N
1518670255.9,286046999.5,N
1518670275.8,286046996.6,N
1518670295.6,286046997.0,N
1518670315.4,286046999.0,N
1518670335.3,286046999.3,N
1518670355.1,286046996.7,N
1518670375.9,286046997.3,N
1518670395.7,286046997.4,N
1518670415.5,286046997.5,N
1518670435.4,286046998.0,N
1518670455.2,286046995.4,N
1518670475.1,286046995.2,N
1518670476.0,286046995.2,N
1518670495.8,286046997.6,N
1518670515.6,286046995.7,N
1518670535.5,286046996.3,N
1518670555.3,286046993.7,Y
1518670575.1,286046997.4,P
1518670595.9,286046998.0,P
1518670615.7,286046995.5,P
1518670635.6,286046998.0,N
1518670655.4,286046997.9,N
1518670675.2,286046997.9,N
1518670695.1,286046995.9,Y
1518670696.0,286046995.9,P
1518670715.8,286046999.6,N
1518670735.7,286046996.7,N
1518670755.5,286046996.7,N
1518670775.3,286046999.4,N
1518670795.2,286046999.2,N
